FENGYUN 1C DEB

Satellite information

Favourite Embed

Satellite Type and Status

DEBRISIN ORBIT

Key statistics

Satellite FENGYUN 1C DEB at a glance.

Uptime

9495

Days in orbit

Revolutions

≈ 14.4

Per day

Orbit

SSO

Sun Synchronous Orbit

Inclination

99.3

Latest

Satellite identification and parameters

Extended collection of information and parameters for FENGYUN 1C DEB.

Object identification

Identified? True

Debris? True

Object name: FENGYUN 1C DEB

International designator: 1999-025CEE

Object number (NORAD): 31731

Object ID (CCSDS): 31731

Country: PEOPLES REPUBLIC OF CHINA (PRC)

Current information (Y/N): Y

RCS size: SMALL

Orbital parameters

Period: 100.152 minutes

Inclination: 99.3155 deg

SMA: 7143.847 km

Apoapsis: 773.651 km

Periapsis: 757.773 km

RAAN: 156.6201 deg

Eccentricy: 0.0011113

Argument of periapsis: 29.46 deg

Mean anomaly: 330.7208 deg

Mean motion: 14.37820035 rev/day

Mean motion (dot): 0.0000559 rev/day2

B* drag term: 0.0018689 1/REarth

Two-line elements (TLE)

Creation date: May 8, 2025, 3:01 a.m.

Reference frame: TEME

Reference center: EARTH

Epoch: May 7, 2025, 1:12 a.m. UTC

TLE line 0: 0 FENGYUN 1C DEB

TLE line 1: 1 31731U 99025CEE 25127.05059293 .00005590 00000-0 18689-2 0 9993

TLE line 2: 2 31731 99.3155 156.6201 0011113 29.4600 330.7208 14.37820035926719

Live tracking on map

Real-time ground track for satellite FENGYUN 1C DEB.

In-orbit conjunctions

A list of the most updated potential collisions computed for object FENGYUN 1C DEB.

Target Orbit TCA Probability of collision Miss distance Type
CZ-6A DEB LEO 2025-01-10 01:25:21 0.0001133232 687.0 (m) DEBRIS
CZ-6A DEB LEO 2024-10-25 19:07:25 0.0006487219 191.0 (m) DEBRIS

Associated space launch

Chinese polar orbiting meteorological satellite

FENGYUN 1C DEB was lifted into orbit during the mission ‘Long March 4B | Feng Yun 1C’, on board a Long March 4B space rocket.

The launch took place on May 10, 1999, 1:33 a.m. from Launch Complex 7.

For more information about the launch, click the button.

Launch to space Long March 4B | Feng Yun 1C
Long March 4B | Feng Yun 1C

Agency: N/A

Status: Launch Successful

Launch date: May 10, 1999, 1:33 a.m. UTC

Rocket: Long March 4B

Launch pad: Launch Complex 7

Location: Taiyuan Satellite Launch Center, People's Republic of China

...

Latest news about this satellite

There are no fresh news available about this satellite. Check back as we update our databases every day.


Newsletter sign-up

Weekly statistics, charts and insights to help you stay on top of the space industry.